• In Russia
  • List of Countries
  • For 7 days
  • Water Temperature
  • Satellite Maps
  • Weather Map
  • Weather Widgets
  • user-avatar
    Login

    Hourly Weather Canberra

    Today, 21 November, Tuesday

    Time Temperature Precipitation Wind Pressure Humidity
    00:00 +13°C° 0 mm 1 mps 714 mmHg 94%
    01:00 +13°C° 0 mm 2 mps 714 mmHg 94%
    02:00 +12°C° 0 mm 2 mps 714 mmHg 94%
    03:00 +12°C° 0 mm 1 mps 714 mmHg 94%
    04:00 +11°C° 0 mm 1 mps 714 mmHg 91%
    05:00 +12°C° 0 mm 1 mps 714 mmHg 85%
    06:00 +14°C° 0 mm 1 mps 714 mmHg 79%
    07:00 +15°C° 0 mm 1 mps 715 mmHg 72%
    08:00 +18°C° 0 mm 2 mps 715 mmHg 61%
    09:00 +20°C° 0 mm 2 mps 715 mmHg 50%
    10:00 +24°C° 0 mm 2 mps 715 mmHg 39%
    11:00 +25°C° 0 mm 2 mps 715 mmHg 37%
    12:00 +26°C° 0 mm 2 mps 714 mmHg 34%
    13:00 +26°C° 0 mm 3 mps 714 mmHg 31%
    14:00 +26°C° 0 mm 3 mps 714 mmHg 34%
    15:00 +26°C° 0 mm 3 mps 713 mmHg 36%
    16:00 +25°C° 0 mm 3 mps 713 mmHg 38%
    17:00 +22°C° 0 mm 3 mps 713 mmHg 48%
    18:00 +20°C° 0 mm 3 mps 713 mmHg 59%
    19:00 +17°C° 0 mm 3 mps 713 mmHg 69%
    20:00 +16°C° 0 mm 2 mps 713 mmHg 77%
    21:00 +14°C° 0 mm 2 mps 713 mmHg 84%
    22:00 +12°C° 0 mm 2 mps 713 mmHg 92%
    23:00 +12°C° 0 mm 1 mps 713 mmHg 94%

    Tomorrow, 22 November, Wednesday

    Time Temperature Precipitation Wind Pressure Humidity
    00:00 +11°C° 0 mm 1 mps 712 mmHg 95%
    01:00 +11°C° 0 mm 1 mps 712 mmHg 96%
    02:00 +10°C° 0 mm 1 mps 712 mmHg 97%
    03:00 +10°C° 0 mm 1 mps 712 mmHg 97%
    04:00 +10°C° 0 mm 1 mps 712 mmHg 97%
    05:00 +12°C° 0 mm 1 mps 712 mmHg 91%
    06:00 +13°C° 0 mm 1 mps 712 mmHg 84%
    07:00 +15°C° 0 mm 1 mps 712 mmHg 78%
    08:00 +18°C° 0 mm 2 mps 712 mmHg 66%
    09:00 +20°C° 0 mm 2 mps 713 mmHg 54%
    10:00 +23°C° 0 mm 2 mps 713 mmHg 41%
    11:00 +24°C° 0 mm 2 mps 712 mmHg 38%
    12:00 +25°C° 0 mm 2 mps 712 mmHg 34%
    13:00 +27°C° 0 mm 2 mps 711 mmHg 30%
    14:00 +26°C° 0 mm 2 mps 711 mmHg 34%
    15:00 +26°C° 0 mm 2 mps 710 mmHg 37%
    16:00 +25°C° 0 mm 3 mps 710 mmHg 41%
    17:00 +22°C° 0.1 mm 3 mps 710 mmHg 52%
    18:00 +19°C° 0.1 mm 3 mps 710 mmHg 64%
    19:00 +17°C° 0.1 mm 3 mps 710 mmHg 75%
    20:00 +16°C° 0 mm 3 mps 710 mmHg 82%
    21:00 +14°C° 0 mm 2 mps 710 mmHg 88%
    22:00 +13°C° 0 mm 2 mps 710 mmHg 94%
    23:00 +12°C° 0 mm 1 mps 710 mmHg 95%

    Day after tomorrow, 23 November, Thursday

    Time Temperature Precipitation Wind Pressure Humidity
    00:00 +12°C° 0 mm 1 mps 710 mmHg 96%
    01:00 +11°C° 0 mm 1 mps 709 mmHg 97%
    02:00 +11°C° 0 mm 1 mps 709 mmHg 97%
    03:00 +11°C° 0 mm 1 mps 709 mmHg 97%
    04:00 +11°C° 0 mm 1 mps 709 mmHg 96%
    05:00 +13°C° 0 mm 1 mps 709 mmHg 90%
    06:00 +14°C° 0 mm 1 mps 709 mmHg 84%
    07:00 +16°C° 0 mm 1 mps 710 mmHg 78%
    08:00 +19°C° 0 mm 1 mps 710 mmHg 67%
    09:00 +22°C° 0 mm 1 mps 710 mmHg 55%
    10:00 +24°C° 0 mm 2 mps 710 mmHg 44%
    11:00 +25°C° 0.1 mm 2 mps 710 mmHg 43%
    12:00 +25°C° 0.1 mm 2 mps 710 mmHg 43%
    13:00 +26°C° 0.1 mm 2 mps 709 mmHg 42%
    14:00 +25°C° 0.1 mm 2 mps 709 mmHg 45%
    15:00 +25°C° 0.1 mm 2 mps 708 mmHg 49%
    16:00 +24°C° 0.1 mm 1 mps 708 mmHg 52%
    17:00 +22°C° 0.1 mm 1 mps 708 mmHg 59%
    18:00 +20°C° 0.1 mm 1 mps 708 mmHg 65%
    19:00 +19°C° 0.1 mm 1 mps 708 mmHg 72%
    20:00 +18°C° 0.4 mm 1 mps 708 mmHg 77%
    21:00 +16°C° 0.4 mm 1 mps 708 mmHg 82%
    22:00 +15°C° 0.4 mm 1 mps 709 mmHg 87%
    23:00 +15°C° 0.2 mm 1 mps 708 mmHg 88%

    24 November, Friday

    Time Temperature Precipitation Wind Pressure Humidity
    00:00 +15°C° 0.2 mm 1 mps 708 mmHg 89%
    01:00 +14°C° 0.2 mm 1 mps 708 mmHg 90%
    02:00 +14°C° 0 mm 1 mps 708 mmHg 90%
    03:00 +14°C° 0 mm 1 mps 707 mmHg 90%
    04:00 +13°C° 0 mm 1 mps 707 mmHg 90%
    05:00 +15°C° 0 mm 1 mps 708 mmHg 83%
    06:00 +18°C° 0 mm 1 mps 709 mmHg 76%
    07:00 +20°C° 0 mm 1 mps 709 mmHg 68%
    08:00 +23°C° 0 mm 2 mps 709 mmHg 57%
    09:00 +25°C° 0 mm 2 mps 710 mmHg 46%
    10:00 +28°C° 0 mm 3 mps 710 mmHg 35%
    11:00 +28°C° 0 mm 3 mps 710 mmHg 36%
    12:00 +28°C° 0 mm 2 mps 709 mmHg 37%
    13:00 +28°C° 0 mm 2 mps 709 mmHg 37%
    14:00 +28°C° 0 mm 2 mps 709 mmHg 39%
    15:00 +27°C° 0 mm 1 mps 709 mmHg 42%
    16:00 +27°C° 0 mm 1 mps 708 mmHg 44%
    17:00 +25°C° 0 mm 1 mps 708 mmHg 49%
    18:00 +23°C° 0 mm 1 mps 709 mmHg 55%
    19:00 +22°C° 0 mm 1 mps 709 mmHg 60%
    20:00 +20°C° 0.3 mm 1 mps 709 mmHg 67%
    21:00 +19°C° 0.3 mm 1 mps 709 mmHg 73%
    22:00 +18°C° 0.3 mm 1 mps 710 mmHg 79%
    23:00 +18°C° 0.1 mm 1 mps 710 mmHg 81%

    25 November, Saturday

    Time Temperature Precipitation Wind Pressure Humidity
    00:00 +16°C° 0.1 mm 1 mps 709 mmHg 84%
    01:00 +16°C° 0.1 mm 2 mps 709 mmHg 86%
    02:00 +16°C° 0 mm 1 mps 709 mmHg 86%
    03:00 +15°C° 0 mm 1 mps 709 mmHg 86%
    04:00 +15°C° 0 mm 1 mps 709 mmHg 87%
    05:00 +18°C° 0 mm 1 mps 710 mmHg 79%
    06:00 +18°C° 0 mm 0 mps 710 mmHg 71%
    07:00 +20°C° 0 mm 0 mps 711 mmHg 63%
    08:00 +23°C° 0 mm 0 mps 711 mmHg 53%
    09:00 +28°C° 0 mm 1 mps 711 mmHg 44%
    10:00 +30°C° 0 mm 1 mps 711 mmHg 34%
    11:00 +31°C° 0 mm 1 mps 711 mmHg 34%
    12:00 +31°C° 0 mm 1 mps 710 mmHg 33%
    13:00 +31°C° 0 mm 1 mps 710 mmHg 32%
    14:00 +30°C° 0 mm 1 mps 710 mmHg 37%
    15:00 +28°C° 0 mm 2 mps 709 mmHg 42%
    16:00 +27°C° 0 mm 2 mps 709 mmHg 47%
    17:00 +25°C° 1 mm 2 mps 709 mmHg 57%
    18:00 +23°C° 1 mm 2 mps 709 mmHg 67%
    19:00 +20°C° 1 mm 2 mps 710 mmHg 76%
    20:00 +19°C° 0.9 mm 2 mps 710 mmHg 82%
    21:00 +18°C° 0.9 mm 2 mps 710 mmHg 87%
    22:00 +17°C° 0.9 mm 2 mps 710 mmHg 93%
    23:00 +16°C° 0.1 mm 1 mps 710 mmHg 93%

    26 November, Sunday

    Time Temperature Precipitation Wind Pressure Humidity
    00:00 +16°C° 0.1 mm 1 mps 710 mmHg 94%
    01:00 +16°C° 0.1 mm 1 mps 709 mmHg 95%
    02:00 +15°C° 0 mm 1 mps 709 mmHg 94%
    03:00 +15°C° 0 mm 1 mps 709 mmHg 94%
    04:00 +15°C° 0 mm 1 mps 709 mmHg 93%
    05:00 +16°C° 0 mm 1 mps 709 mmHg 88%
    06:00 +18°C° 0 mm 1 mps 710 mmHg 83%
    07:00 +20°C° 0 mm 1 mps 710 mmHg 78%
    08:00 +23°C° 0 mm 1 mps 710 mmHg 65%
    09:00 +25°C° 0 mm 2 mps 711 mmHg 52%
    10:00 +28°C° 0 mm 2 mps 711 mmHg 40%
    11:00 +29°C° 0.1 mm 2 mps 711 mmHg 40%
    12:00 +29°C° 0.1 mm 2 mps 710 mmHg 40%
    13:00 +29°C° 0.1 mm 2 mps 710 mmHg 39%
    14:00 +28°C° 0.1 mm 2 mps 709 mmHg 45%
    15:00 +27°C° 0.1 mm 1 mps 709 mmHg 50%
    16:00 +25°C° 0.1 mm 1 mps 709 mmHg 56%
    17:00 +24°C° 0.2 mm 2 mps 709 mmHg 62%
    18:00 +23°C° 0.2 mm 2 mps 709 mmHg 68%
    19:00 +20°C° 0.2 mm 3 mps 709 mmHg 74%
    20:00 +19°C° 0.4 mm 2 mps 709 mmHg 79%
    21:00 +19°C° 0.4 mm 2 mps 709 mmHg 84%
    22:00 +18°C° 0.4 mm 2 mps 710 mmHg 90%
    23:00 +17°C° 0.2 mm 2 mps 709 mmHg 91%
    Show more